2023/09/08 00:00:00, 3.1,21.2
2023/09/08 00:10:00, 3.0,21.2
2023/09/08 00:20:00, 2.9,21.1
2023/09/08 00:30:00, 2.8,21.2
2023/09/08 00:40:00, 2.6,21.0
2023/09/08 00:50:00, 2.5,20.9
2023/09/08 01:00:00, 2.4,20.8
2023/09/08 01:10:00, 2.3,21.1
2023/09/08 01:20:00, 2.0,20.9
2023/09/08 01:30:00, 1.9,21.0
2023/09/08 01:40:00, 1.8,20.8
2023/09/08 01:50:00, 1.5,21.2
2023/09/08 02:00:00, 1.5,20.8
2023/09/08 02:10:00, 1.6,21.1
2023/09/08 02:20:00, 1.6,21.0
2023/09/08 02:30:00, 1.8,21.0
2023/09/08 02:40:00, 1.9,21.4
2023/09/08 02:50:00, 2.4,21.2
2023/09/08 03:00:00, 3.3,21.0
2023/09/08 03:10:00, 2.5,21.0
2023/09/08 03:20:00, 2.3,20.9
2023/09/08 03:30:00, 2.3,20.8
2023/09/08 03:40:00, 2.4,21.1
2023/09/08 03:50:00, 2.5,20.8
2023/09/08 04:00:00, 2.6,21.0
2023/09/08 04:10:00, 2.8,21.0
2023/09/08 04:20:00, 2.8,21.1
2023/09/08 04:30:00, 2.9,21.2
2023/09/08 04:40:00, 3.0,20.9
2023/09/08 04:50:00, 3.3,21.0
2023/09/08 05:00:00, 3.9,20.8
2023/09/08 05:10:00, 4.0,21.2
2023/09/08 05:20:00, 4.1,20.9
2023/09/08 05:30:00, 4.0,20.9
2023/09/08 05:40:00, 4.0,21.0
2023/09/08 05:50:00, 4.1,20.9
2023/09/08 06:00:00, 4.1,21.1
2023/09/08 06:10:00, 4.0,21.1
2023/09/08 06:20:00, 3.8,21.2
2023/09/08 06:30:00, 4.0,20.8
2023/09/08 06:40:00, 4.3,21.4
2023/09/08 06:50:00, 4.4,21.4
2023/09/08 07:00:00, 4.4,21.2
2023/09/08 07:10:00, 4.5,21.3
2023/09/08 07:20:00, 4.5,21.5
2023/09/08 07:30:00, 4.5,21.6
2023/09/08 07:40:00, 2.4,21.5
2023/09/08 07:50:00, 0.3,21.9
2023/09/08 08:00:00, 0.3,21.8
2023/09/08 08:10:00, 0.3,21.5
2023/09/08 08:20:00, 0.3,21.5
2023/09/08 08:30:00, 0.3,21.6
2023/09/08 08:40:00, 0.3,21.9
2023/09/08 08:50:00, 0.3,22.0
2023/09/08 09:00:00, 0.3,22.2
2023/09/08 09:10:00, 0.4,22.5
2023/09/08 09:20:00, 0.3,23.0
2023/09/08 09:30:00, 0.3,23.1
2023/09/08 09:40:00, 0.2,23.1
2023/09/08 09:50:00, 0.3,23.1
2023/09/08 10:00:00, 0.3,22.9
2023/09/08 10:10:00, 0.3,22.7
2023/09/08 10:20:00, 0.4,22.7
2023/09/08 10:30:00, 0.5,23.2
2023/09/08 10:40:00, 0.4,24.0
2023/09/08 10:50:00, 0.5,24.9
2023/09/08 11:00:00, 0.5,25.5
2023/09/08 11:10:00, 3.8,25.2
2023/09/08 11:20:00, 3.5,25.0
2023/09/08 11:30:00, 3.6,25.1
2023/09/08 11:40:00, 3.5,25.4
2023/09/08 11:50:00, 3.5,24.7
2023/09/08 12:00:00, 3.5,24.7
2023/09/08 12:10:00, 3.6,25.1
2023/09/08 12:20:00, 3.5,25.1
2023/09/08 12:30:00, 3.5,25.3
2023/09/08 12:40:00, 3.6,25.5
2023/09/08 12:50:00, 3.8,25.8
2023/09/08 13:00:00, 3.9,25.0
2023/09/08 13:10:00, 3.9,24.8
2023/09/08 13:20:00, 3.9,24.7
2023/09/08 13:30:00, 4.1,24.6
2023/09/08 13:40:00, 4.2,24.6
2023/09/08 13:50:00, 2.1,24.9
2023/09/08 14:00:00, 0.3,24.9
2023/09/08 14:10:00, 0.3,25.0
2023/09/08 14:20:00, 0.3,26.1
2023/09/08 14:30:00, 0.3,26.0
2023/09/08 14:40:00, 0.3,26.0
2023/09/08 14:50:00, 0.3,25.4
2023/09/08 15:00:00, 0.3,25.1
2023/09/08 15:10:00, 0.3,25.2
2023/09/08 15:20:00, 0.3,25.4
2023/09/08 15:30:00, 0.3,25.1
2023/09/08 15:40:00, 0.3,24.7
2023/09/08 15:50:00, 0.3,24.5
2023/09/08 16:00:00, 0.3,24.3
2023/09/08 16:10:00, 0.3,24.5
2023/09/08 16:20:00, 0.3,24.7
2023/09/08 16:30:00, 0.3,25.4
2023/09/08 16:40:00, 0.3,31.0
2023/09/08 16:50:00, 0.3,32.8
2023/09/08 17:00:00, 0.2,31.9
2023/09/08 17:10:00, 0.3,29.6
2023/09/08 17:20:00, 1.2,25.6
2023/09/08 17:30:00, 3.7,24.1
2023/09/08 17:40:00, 3.4,23.8
2023/09/08 17:50:00, 2.7,23.6
2023/09/08 18:00:00, 2.1,23.3
2023/09/08 18:10:00, 1.8,22.8
2023/09/08 18:20:00, 1.6,22.8
2023/09/08 18:30:00, 1.5,22.3
2023/09/08 18:40:00, 1.5,22.1
2023/09/08 18:50:00, 1.4,22.2
2023/09/08 19:00:00, 1.4,22.3
2023/09/08 19:10:00, 1.2,22.0
2023/09/08 19:20:00, 0.3,22.0
2023/09/08 19:30:00, 0.3,21.9
2023/09/08 19:40:00, 0.4,21.6
2023/09/08 19:50:00, 2.2,21.6
2023/09/08 20:00:00, 3.2,21.5
2023/09/08 20:10:00, 3.6,21.5
2023/09/08 20:20:00, 4.4,21.6
2023/09/08 20:30:00, 5.3,21.2
2023/09/08 20:40:00, 6.4,21.0
2023/09/08 20:50:00, 2.8,21.2
2023/09/08 21:00:00, 0.3,21.2
2023/09/08 21:10:00, 0.3,21.3
2023/09/08 21:20:00, 0.3,21.3
2023/09/08 21:30:00, 0.3,21.4
2023/09/08 21:40:00, 0.3,21.4
2023/09/08 21:50:00, 0.3,21.2
2023/09/08 22:00:00, 0.3,21.5
2023/09/08 22:10:00, 0.3,21.0
2023/09/08 22:20:00, 0.3,21.3
2023/09/08 22:30:00, 0.3,21.0
2023/09/08 22:40:00, 0.3,21.3
2023/09/08 22:50:00, 0.3,20.7
2023/09/08 23:00:00, 0.3,21.2
2023/09/08 23:10:00, 0.3,21.0
2023/09/08 23:20:00, 1.2,21.1
2023/09/08 23:30:00, 4.1,20.8
2023/09/08 23:40:00, 3.4,21.0
2023/09/08 23:50:00, 2.7,21.1
